TimeCDT,TemperatureF,Dew PointF,Humidity,Sea Level PressureIn,VisibilityMPH,Wind Direction,Wind SpeedMPH,Gust SpeedMPH,PrecipitationIn,Events,Conditions,WindDirDegrees,DateUTC
12:15 AM,53.6,46.4,77,30.15,10.0,SE,13.8,17.3,N/A,,Overcast,130,2013-05-26 05:15:00
12:35 AM,51.8,46.4,82,30.14,10.0,SE,11.5,16.1,N/A,,Overcast,130,2013-05-26 05:35:00
12:55 AM,51.8,46.4,82,30.15,10.0,SE,11.5,-,N/A,,Overcast,130,2013-05-26 05:55:00
1:15 AM,51.8,46.4,82,30.14,10.0,SE,13.8,18.4,N/A,,Overcast,130,2013-05-26 06:15:00
1:35 AM,51.8,46.4,82,30.15,10.0,SE,12.7,19.6,N/A,,Overcast,140,2013-05-26 06:35:00
1:55 AM,51.8,46.4,82,30.14,10.0,SE,10.4,-,N/A,,Overcast,130,2013-05-26 06:55:00
2:15 AM,51.8,46.4,82,30.10,10.0,ESE,12.7,-,N/A,,Overcast,120,2013-05-26 07:15:00
2:35 AM,51.8,44.6,76,30.08,10.0,ESE,12.7,19.6,N/A,,Overcast,120,2013-05-26 07:35:00
2:55 AM,51.8,44.6,76,30.09,10.0,SE,13.8,20.7,N/A,,Overcast,130,2013-05-26 07:55:00
3:15 AM,51.8,44.6,76,30.11,10.0,SE,13.8,19.6,N/A,,Overcast,130,2013-05-26 08:15:00
3:35 AM,51.8,44.6,76,30.12,10.0,SE,9.2,12.7,N/A,,Overcast,140,2013-05-26 08:35:00
3:55 AM,51.8,44.6,76,30.11,10.0,SE,13.8,-,N/A,,Overcast,130,2013-05-26 08:55:00
4:15 AM,51.8,44.6,76,30.12,10.0,SE,15.0,-,N/A,,Overcast,140,2013-05-26 09:15:00
4:35 AM,51.8,44.6,76,30.13,10.0,SE,16.1,-,N/A,,Overcast,140,2013-05-26 09:35:00
4:55 AM,51.8,44.6,76,30.13,10.0,SE,12.7,-,N/A,,Overcast,140,2013-05-26 09:55:00
5:15 AM,51.8,44.6,76,30.11,10.0,SE,15.0,20.7,N/A,,Overcast,140,2013-05-26 10:15:00
5:35 AM,51.8,44.6,76,30.08,10.0,ESE,16.1,23.0,N/A,,Overcast,120,2013-05-26 10:35:00
5:55 AM,50.0,42.8,76,30.06,10.0,ESE,16.1,21.9,N/A,,Overcast,120,2013-05-26 10:55:00
6:15 AM,50.0,42.8,76,30.08,10.0,ESE,16.1,21.9,N/A,,Mostly Cloudy,120,2013-05-26 11:15:00
6:35 AM,50.0,42.8,76,30.09,10.0,ESE,13.8,19.6,N/A,,Mostly Cloudy,120,2013-05-26 11:35:00
6:55 AM,50.0,42.8,76,30.11,10.0,SE,13.8,18.4,N/A,,Mostly Cloudy,130,2013-05-26 11:55:00
7:15 AM,51.8,42.8,71,30.11,10.0,SE,16.1,23.0,N/A,,Overcast,130,2013-05-26 12:15:00
7:35 AM,51.8,42.8,71,30.11,10.0,SE,13.8,19.6,N/A,,Overcast,130,2013-05-26 12:35:00
7:55 AM,51.8,42.8,71,30.12,10.0,SSE,11.5,-,N/A,,Overcast,160,2013-05-26 12:55:00
8:15 AM,51.8,42.8,71,30.11,10.0,SSE,13.8,-,N/A,,Overcast,160,2013-05-26 13:15:00
8:35 AM,51.8,42.8,71,30.11,10.0,SE,10.4,-,N/A,,Overcast,140,2013-05-26 13:35:00
8:55 AM,51.8,42.8,71,30.11,10.0,SE,9.2,-,N/A,,Overcast,140,2013-05-26 13:55:00
9:15 AM,51.8,44.6,76,30.11,10.0,SE,11.5,17.3,N/A,,Overcast,140,2013-05-26 14:15:00
9:35 AM,51.8,44.6,76,30.11,10.0,SE,10.4,-,N/A,,Overcast,130,2013-05-26 14:35:00
9:55 AM,51.8,44.6,76,30.11,10.0,SE,13.8,-,N/A,,Overcast,130,2013-05-26 14:55:00
10:15 AM,51.8,44.6,76,30.12,10.0,SE,12.7,19.6,N/A,,Overcast,130,2013-05-26 15:15:00
10:35 AM,53.6,44.6,72,30.12,10.0,SE,13.8,17.3,N/A,,Overcast,140,2013-05-26 15:35:00
10:55 AM,53.6,44.6,72,30.12,10.0,SSE,15.0,21.9,N/A,,Overcast,150,2013-05-26 15:55:00
11:15 AM,53.6,44.6,72,30.10,10.0,SE,12.7,-,N/A,,Overcast,140,2013-05-26 16:15:00
11:55 AM,55.4,44.6,67,30.08,10.0,SE,15.0,21.9,N/A,,Overcast,140,2013-05-26 16:55:00
12:15 PM,55.4,44.6,67,30.05,10.0,SE,17.3,26.5,N/A,,Overcast,130,2013-05-26 17:15:00
12:35 PM,55.4,44.6,67,30.04,10.0,SE,25.3,32.2,N/A,,Overcast,130,2013-05-26 17:35:00
12:55 PM,55.4,44.6,67,30.04,10.0,SE,21.9,28.8,N/A,,Overcast,130,2013-05-26 17:55:00
1:15 PM,55.4,46.4,72,30.07,10.0,SE,23.0,29.9,N/A,,Overcast,130,2013-05-26 18:15:00
1:35 PM,55.4,46.4,72,30.08,10.0,SE,19.6,28.8,N/A,,Overcast,140,2013-05-26 18:35:00
1:55 PM,55.4,46.4,72,30.09,10.0,SE,20.7,27.6,N/A,,Overcast,130,2013-05-26 18:55:00
2:15 PM,55.4,46.4,72,30.08,10.0,SSE,21.9,25.3,N/A,,Overcast,150,2013-05-26 19:15:00
2:35 PM,57.2,46.4,67,30.08,10.0,SE,17.3,24.2,N/A,,Overcast,140,2013-05-26 19:35:00
2:55 PM,57.2,46.4,67,30.08,10.0,SE,18.4,24.2,N/A,,Overcast,140,2013-05-26 19:55:00
3:15 PM,57.2,46.4,67,30.08,10.0,SE,16.1,23.0,N/A,,Overcast,140,2013-05-26 20:15:00
3:35 PM,59.0,46.4,63,30.08,10.0,SSE,13.8,23.0,N/A,,Overcast,150,2013-05-26 20:35:00
3:55 PM,59.0,46.4,63,30.08,10.0,SE,15.0,-,N/A,,Overcast,130,2013-05-26 20:55:00
4:15 PM,59.0,46.4,63,30.08,10.0,ESE,15.0,21.9,N/A,,Overcast,120,2013-05-26 21:15:00
4:35 PM,59.0,46.4,63,30.08,10.0,SE,19.6,24.2,N/A,,Overcast,140,2013-05-26 21:35:00
4:55 PM,59.0,46.4,63,30.07,10.0,SE,16.1,-,N/A,,Overcast,130,2013-05-26 21:55:00
5:15 PM,59.0,44.6,59,30.07,10.0,ESE,17.3,24.2,N/A,,Overcast,120,2013-05-26 22:15:00
5:35 PM,59.0,44.6,59,30.06,10.0,SE,17.3,-,N/A,,Overcast,130,2013-05-26 22:35:00
5:55 PM,59.0,44.6,59,30.06,10.0,SE,17.3,20.7,N/A,,Overcast,130,2013-05-26 22:55:00
6:15 PM,59.0,44.6,59,30.06,10.0,SE,16.1,-,N/A,,Overcast,130,2013-05-26 23:15:00
6:35 PM,57.2,44.6,63,30.06,10.0,SE,15.0,20.7,N/A,,Overcast,140,2013-05-26 23:35:00
6:55 PM,57.2,42.8,59,30.05,10.0,SE,13.8,19.6,N/A,,Overcast,130,2013-05-26 23:55:00
7:15 PM,57.2,44.6,63,30.06,10.0,SE,16.1,-,N/A,,Overcast,140,2013-05-27 00:15:00
7:35 PM,57.2,44.6,63,30.06,10.0,SE,13.8,-,N/A,,Overcast,140,2013-05-27 00:35:00
7:55 PM,55.4,44.6,67,30.06,10.0,SE,13.8,21.9,N/A,,Overcast,140,2013-05-27 00:55:00
8:15 PM,55.4,46.4,72,30.06,10.0,SE,13.8,21.9,N/A,,Overcast,140,2013-05-27 01:15:00
8:35 PM,53.6,46.4,77,30.06,10.0,SE,12.7,-,N/A,,Overcast,140,2013-05-27 01:35:00
8:55 PM,53.6,46.4,77,30.06,10.0,SE,9.2,-,N/A,,Overcast,130,2013-05-27 01:55:00
9:15 PM,53.6,44.6,72,30.05,10.0,ESE,12.7,-,N/A,,Overcast,120,2013-05-27 02:15:00
9:35 PM,53.6,44.6,72,30.05,10.0,SE,10.4,-,N/A,,Overcast,130,2013-05-27 02:35:00
9:55 PM,53.6,44.6,72,30.04,10.0,SE,9.2,-,N/A,,Overcast,130,2013-05-27 02:55:00
10:15 PM,53.6,44.6,72,30.04,10.0,SE,10.4,-,N/A,,Overcast,130,2013-05-27 03:15:00
10:35 PM,53.6,44.6,72,30.04,10.0,SE,12.7,-,N/A,,Overcast,140,2013-05-27 03:35:00
10:55 PM,53.6,46.4,77,30.03,10.0,SE,10.4,16.1,N/A,,Overcast,130,2013-05-27 03:55:00
11:15 PM,53.6,46.4,77,30.00,10.0,ESE,12.7,-,N/A,,Overcast,120,2013-05-27 04:15:00
11:35 PM,53.6,46.4,77,30.01,10.0,SE,11.5,-,N/A,,Overcast,140,2013-05-27 04:35:00
11:55 PM,53.6,46.4,77,30.01,10.0,SE,12.7,19.6,N/A,,Overcast,140,2013-05-27 04:55:00